Content
SEND FEEDBACK

Daily
Averages
Monthly
Summary
United States of America

CAPULIN VOLCANO NATIONAL MONUMENT, NEW MEXICO


Home > North America > United States > New Mexico
Elevation: 2222 meters     Latitude: 36 47N     Longitude: 103 58W

WEATHER
 
SELECT A DAY
Number of Records: 155,037;   Date Range: 8/27/98 - 10/29/14
 
SHARE

PRINT THIS DATA

[ ← Previous Day ]
WEATHER ALMANAC - 5 FEBRUARY, 2013
[ Next Day → ]
[ °F ]   °C
Weather ElementAverageHighLow
Temperature3.8 °C14.4 °C (2:53 pm)-5.6 °C (4:53 am)
Dewpoint-11.8 °C-10 °C (9:53 pm)-13.9 °C (6:53 am)
Humidity36.1 %60 % (1:53 am)14 % (2:53 pm)
Barometer1014.6 hPa1017.3 hPa (7:53 am)1011.9 hPa (3:53 am)
Wind Speed13.7 km/h27.8 km/h (4:53 pm)
Wind Gust40.7 km/h (3:53 pm)
Weather ElementAverage
Visibility16.1 km
Wind DirectionESE (117 °)

Weather ElementTotal
Precipitation---
Heating Degree Days13.9 (Base 18.3)
Averaged from 23 records on 5 February, 2013
WEATHER CONDITIONS BREAKOUT
WIND DIRECTION BREAKOUT
WEATHER BY HOUR - 5 FEBRUARY, 2013
[ °F ]   °C
Local TimeTemperatureDewpointHumidityBarometerVisibilityWind DirectionWind SpeedGust SpeedPrecipitationEventsConditions
1:53 AM-5 °C-11.7 °C60 %1012.2 hPa16.1 kmNNE (30°)5.6 km/hClear
2:53 AM-5 °C-12.2 °C58 %1012.2 hPa16.1 kmENE (60°)13 km/hClear
3:53 AM-3.9 °C-11.7 °C55 %1011.9 hPa16.1 kmNE (40°)13 km/hClear
4:53 AM-5.6 °C-12.2 °C60 %1013.9 hPa16.1 kmENE (60°)18.5 km/hClear
5:53 AM-5.6 °C-13.3 °C55 %1015.2 hPa16.1 kmNE (40°)14.8 km/hClear
6:53 AM0 °C-13.9 °C35 %1014.9 hPa16.1 kmNNE (30°)9.3 km/hClear
7:53 AM0 °C-12.2 °C40 %1017.3 hPa16.1 kmENE (60°)14.8 km/hClear
8:53 AM4.4 °C-11.1 °C32 %1017.3 hPa16.1 kmCalmClear
9:53 AM9.4 °C-11.7 °C22 %1015.9 hPa16.1 kmESE (110°)11.1 km/hClear
10:53 AM11.7 °C-12.2 °C18 %1015.6 hPa16.1 kmEast (90°)16.7 km/hClear
11:53 AM12.8 °C-12.8 °C16 %1014.9 hPa16.1 kmVariable9.3 km/hClear
12:53 PM13.9 °C-12.8 °C15 %1014.2 hPa16.1 kmVariable7.4 km/hClear
1:53 PM13.9 °C-12.8 °C15 %1013.5 hPa16.1 kmSouth (190°)20.4 km/hClear
2:53 PM14.4 °C-12.8 °C14 %1012.9 hPa16.1 kmSouth (170°)22.2 km/h33.3 km/hClear
3:53 PM13.3 °C-12.8 °C15 %1012.9 hPa16.1 kmSouth (190°)25.9 km/h40.7 km/hClear
4:53 PM10.6 °C-11.7 °C20 %1014.2 hPa16.1 kmSSE (160°)27.8 km/hClear
5:53 PM6.1 °C-10.6 °C30 %1016.3 hPa16.1 kmSSE (160°)14.8 km/hClear
6:53 PM2.8 °C-11.1 °C36 %1016.3 hPa16.1 kmWSW (250°)11.1 km/hClear
7:53 PM1.1 °C-10.6 °C42 %1017.3 hPa16.1 kmWest (260°)16.7 km/hClear
8:53 PM0.6 °C-10.6 °C43 %1015.9 hPa16.1 kmWest (260°)14.8 km/hClear
9:53 PM0 °C-10 °C48 %1014.9 hPa16.1 kmWest (260°)11.1 km/hClear
10:53 PM1.1 °C-10 °C44 %1013.5 hPa16.1 kmSW (230°)7.4 km/hClear
11:53 PM-3.9 °C-11.1 °C58 %1013.9 hPa16.1 kmNE (40°)9.3 km/hClear
Hourly data recorded from KRTN, located 0 kilometers away from Capulin Volcano National Monument, New Mexico







STORIES FROM OUR PARTNERS